When you browse on this site, cookies collect data to enhance your experience and personalize the content and advertising you see.
Visit our Privacy Policy to learn more. By continuing to use the site, you agree to this use of cookies and data.
EN

Hourly Weather Pomianowice

Today, 4 July, Saturday

Time Temperature Precipitation Wind Pressure Humidity
00:00 +16°C° 0 mm 2 mps 746 mmHg 76%
01:00 +15°C° 0 mm 2 mps 746 mmHg 78%
02:00 +15°C° 0 mm 2 mps 746 mmHg 79%
03:00 +14°C° 0 mm 2 mps 746 mmHg 79%
04:00 +14°C° 0 mm 1 mps 746 mmHg 80%
05:00 +16°C° 0 mm 2 mps 746 mmHg 77%
06:00 +17°C° 0 mm 2 mps 746 mmHg 74%
07:00 +19°C° 0 mm 2 mps 746 mmHg 71%
08:00 +20°C° 0 mm 2 mps 746 mmHg 66%
09:00 +21°C° 0 mm 2 mps 746 mmHg 61%
10:00 +24°C° 0 mm 2 mps 746 mmHg 56%
11:00 +24°C° 0 mm 3 mps 746 mmHg 55%
12:00 +25°C° 0 mm 3 mps 746 mmHg 53%
13:00 +26°C° 0 mm 4 mps 745 mmHg 52%
14:00 +26°C° 0 mm 3 mps 745 mmHg 53%
15:00 +26°C° 0 mm 3 mps 745 mmHg 54%
16:00 +26°C° 0 mm 3 mps 744 mmHg 54%
17:00 +25°C° 0 mm 3 mps 744 mmHg 60%
18:00 +24°C° 0 mm 2 mps 744 mmHg 65%
19:00 +23°C° 0 mm 2 mps 744 mmHg 70%
20:00 +21°C° 0 mm 2 mps 744 mmHg 72%
21:00 +20°C° 0 mm 2 mps 744 mmHg 74%
22:00 +19°C° 0 mm 2 mps 744 mmHg 76%
23:00 +18°C° 0 mm 2 mps 744 mmHg 77%

Tomorrow, 5 July, Sunday

Time Temperature Precipitation Wind Pressure Humidity
00:00 +18°C° 0 mm 2 mps 744 mmHg 78%
01:00 +17°C° 0 mm 2 mps 744 mmHg 79%
02:00 +17°C° 0 mm 2 mps 744 mmHg 79%
03:00 +17°C° 0 mm 2 mps 744 mmHg 78%
04:00 +17°C° 0 mm 2 mps 744 mmHg 78%
05:00 +19°C° 0 mm 2 mps 744 mmHg 76%
06:00 +20°C° 0 mm 2 mps 744 mmHg 73%
07:00 +21°C° 0 mm 3 mps 744 mmHg 71%
08:00 +22°C° 0 mm 3 mps 744 mmHg 68%
09:00 +23°C° 0 mm 4 mps 744 mmHg 64%
10:00 +26°C° 0 mm 4 mps 744 mmHg 60%
11:00 +26°C° 0.1 mm 4 mps 744 mmHg 60%
12:00 +27°C° 0.1 mm 4 mps 743 mmHg 61%
13:00 +27°C° 0.1 mm 4 mps 743 mmHg 61%
14:00 +27°C° 0.2 mm 4 mps 743 mmHg 62%
15:00 +27°C° 0.2 mm 4 mps 743 mmHg 62%
16:00 +27°C° 0.2 mm 4 mps 742 mmHg 63%
17:00 +26°C° 0.1 mm 4 mps 742 mmHg 68%
18:00 +25°C° 0.1 mm 3 mps 742 mmHg 73%
19:00 +24°C° 0.1 mm 3 mps 742 mmHg 77%
20:00 +22°C° 0 mm 3 mps 742 mmHg 80%
21:00 +21°C° 0 mm 3 mps 742 mmHg 83%
22:00 +20°C° 0 mm 3 mps 742 mmHg 85%
23:00 +19°C° 0 mm 3 mps 742 mmHg 86%

Day after tomorrow, 6 July, Monday

Time Temperature Precipitation Wind Pressure Humidity
00:00 +19°C° 0 mm 3 mps 741 mmHg 86%
01:00 +18°C° 0 mm 3 mps 741 mmHg 87%
02:00 +18°C° 0 mm 3 mps 741 mmHg 88%
03:00 +18°C° 0 mm 3 mps 741 mmHg 89%
04:00 +17°C° 0 mm 3 mps 740 mmHg 90%
05:00 +18°C° 0 mm 3 mps 740 mmHg 86%
06:00 +20°C° 0 mm 4 mps 740 mmHg 81%
07:00 +21°C° 0 mm 4 mps 740 mmHg 76%
08:00 +21°C° 0.3 mm 4 mps 740 mmHg 78%
09:00 +21°C° 0.3 mm 5 mps 740 mmHg 79%
10:00 +20°C° 0.3 mm 5 mps 740 mmHg 80%
11:00 +20°C° 0 mm 5 mps 740 mmHg 74%
12:00 +19°C° 0 mm 5 mps 740 mmHg 67%
13:00 +19°C° 0 mm 6 mps 740 mmHg 61%
14:00 +20°C° 0 mm 6 mps 740 mmHg 57%
15:00 +22°C° 0 mm 6 mps 740 mmHg 53%
16:00 +23°C° 0 mm 7 mps 741 mmHg 49%
17:00 +21°C° 0 mm 6 mps 741 mmHg 54%
18:00 +20°C° 0 mm 5 mps 741 mmHg 60%
19:00 +18°C° 0 mm 4 mps 741 mmHg 65%
20:00 +17°C° 0 mm 4 mps 742 mmHg 66%
21:00 +15°C° 0 mm 4 mps 742 mmHg 66%
22:00 +14°C° 0 mm 3 mps 743 mmHg 67%
23:00 +13°C° 0 mm 4 mps 743 mmHg 70%

7 July, Tuesday

Time Temperature Precipitation Wind Pressure Humidity
00:00 +13°C° 0 mm 4 mps 743 mmHg 72%
01:00 +12°C° 0 mm 4 mps 744 mmHg 75%
02:00 +11°C° 0 mm 4 mps 744 mmHg 79%
03:00 +11°C° 0 mm 4 mps 744 mmHg 82%
04:00 +10°C° 0 mm 4 mps 745 mmHg 86%
05:00 +11°C° 0 mm 4 mps 745 mmHg 83%
06:00 +12°C° 0 mm 5 mps 746 mmHg 80%
07:00 +13°C° 0 mm 5 mps 746 mmHg 76%
08:00 +14°C° 0 mm 5 mps 746 mmHg 72%
09:00 +15°C° 0 mm 5 mps 746 mmHg 68%
10:00 +16°C° 0 mm 6 mps 746 mmHg 63%
11:00 +17°C° 0.1 mm 5 mps 746 mmHg 60%
12:00 +19°C° 0.1 mm 5 mps 746 mmHg 57%
13:00 +20°C° 0.1 mm 5 mps 746 mmHg 54%
14:00 +20°C° 0.1 mm 5 mps 746 mmHg 54%
15:00 +20°C° 0.1 mm 5 mps 746 mmHg 54%
16:00 +20°C° 0.1 mm 4 mps 746 mmHg 54%
17:00 +19°C° 0 mm 3 mps 746 mmHg 59%
18:00 +18°C° 0 mm 2 mps 746 mmHg 64%
19:00 +18°C° 0 mm 1 mps 746 mmHg 69%
20:00 +16°C° 0 mm 2 mps 746 mmHg 71%
21:00 +15°C° 0 mm 2 mps 746 mmHg 73%
22:00 +13°C° 0 mm 2 mps 746 mmHg 76%
23:00 +13°C° 0 mm 2 mps 746 mmHg 78%

8 July, Wednesday

Time Temperature Precipitation Wind Pressure Humidity
00:00 +12°C° 0 mm 2 mps 746 mmHg 81%
01:00 +12°C° 0 mm 2 mps 746 mmHg 83%
02:00 +10°C° 0 mm 2 mps 746 mmHg 84%
03:00 +10°C° 0 mm 2 mps 746 mmHg 85%
04:00 +10°C° 0 mm 2 mps 746 mmHg 86%
05:00 +12°C° 0 mm 3 mps 747 mmHg 82%
06:00 +13°C° 0 mm 3 mps 747 mmHg 77%
07:00 +15°C° 0 mm 4 mps 747 mmHg 72%
08:00 +17°C° 0.2 mm 4 mps 747 mmHg 70%
09:00 +17°C° 0.2 mm 5 mps 747 mmHg 67%
10:00 +19°C° 0.2 mm 5 mps 748 mmHg 64%
11:00 +19°C° 0.1 mm 5 mps 747 mmHg 60%
12:00 +20°C° 0.1 mm 5 mps 747 mmHg 56%
13:00 +21°C° 0.1 mm 5 mps 747 mmHg 51%
14:00 +21°C° 0 mm 5 mps 747 mmHg 50%
15:00 +21°C° 0 mm 4 mps 747 mmHg 50%
16:00 +21°C° 0 mm 4 mps 747 mmHg 49%
17:00 +20°C° 0 mm 3 mps 747 mmHg 54%
18:00 +19°C° 0 mm 2 mps 747 mmHg 59%
19:00 +19°C° 0 mm 1 mps 747 mmHg 64%
20:00 +18°C° 0 mm 1 mps 747 mmHg 66%
21:00 +16°C° 0 mm 1 mps 747 mmHg 68%
22:00 +14°C° 0 mm 1 mps 747 mmHg 69%
23:00 +14°C° 0 mm 2 mps 747 mmHg 71%

9 July, Thursday

Time Temperature Precipitation Wind Pressure Humidity
00:00 +13°C° 0 mm 2 mps 747 mmHg 73%
01:00 +13°C° 0 mm 2 mps 747 mmHg 76%
02:00 +13°C° 0 mm 2 mps 747 mmHg 79%
03:00 +13°C° 0 mm 2 mps 747 mmHg 82%
04:00 +13°C° 0 mm 2 mps 746 mmHg 85%
05:00 +14°C° 0 mm 2 mps 746 mmHg 80%
06:00 +16°C° 0 mm 3 mps 746 mmHg 75%
07:00 +18°C° 0 mm 3 mps 746 mmHg 71%
08:00 +20°C° 0 mm 3 mps 746 mmHg 65%
09:00 +22°C° 0 mm 4 mps 746 mmHg 59%
10:00 +25°C° 0 mm 4 mps 746 mmHg 53%
11:00 +25°C° 0 mm 5 mps 745 mmHg 52%
12:00 +26°C° 0 mm 5 mps 745 mmHg 50%
13:00 +27°C° 0 mm 5 mps 745 mmHg 49%
14:00 +27°C° 0 mm 5 mps 744 mmHg 50%
15:00 +26°C° 0 mm 5 mps 744 mmHg 52%
16:00 +26°C° 0 mm 4 mps 744 mmHg 54%
17:00 +23°C° 0.1 mm 4 mps 744 mmHg 61%
18:00 +22°C° 0.1 mm 4 mps 744 mmHg 69%
19:00 +20°C° 0.1 mm 4 mps 744 mmHg 76%
20:00 +19°C° 0 mm 4 mps 745 mmHg 80%
21:00 +18°C° 0 mm 4 mps 745 mmHg 84%
22:00 +17°C° 0 mm 4 mps 745 mmHg 89%
23:00 +16°C° 0 mm 3 mps 746 mmHg 89%
Show more